Regional Weather Roundup
Issued by NWS

Home | Current Version | Previous Version | Text Only | Print | Product List | Glossary Off
Versions: 1 2 3 4 5 6 7 8 9 10 11 12 13 14 15 16 17 18 19 20 21 22 23 24 25 26 27 28 29 30 31 32 33 34 35 36 37 38 39 40 41 42 43 44 45 46 47 48 49 50

000
ASUS45 KBOU 022207
RWRCO

WEATHER ROUNDUP FOR COLORADO
NATIONAL WEATHER SERVICE DENVER/BOULDER CO
300 PM MST MON MAR 02 2015

NOTE: "FAIR" INDICATES FEW OR NO CLOUDS BELOW 12000 FEET WITH NO
SIGNIFICANT WEATHER AND/OR OBSTRUCTIONS TO VISIBILITY.

COZ001>005-013-030-031-022300-
...NORTHWEST COLORADO...

CITY           SKY/WX    TMP DP  RH WIND       PRES   REMARKS
CRAIG          CLOUDY    45  34  65 SW12G22   29.62F
HAYDEN         CLOUDY    43  30  61 E6        29.63
MEEKER         LGT RAIN  47  37  68 S20G25    29.63F
MOUNT WERNER   NOT AVBL
STEAMBOAT SPGS CLOUDY    37  32  82 CALM      29.64F
WALDEN         PTSUNNY   39  27  60 S17G24    29.67F
$$

COZ006>008-011-022300-
...WEST CENTRAL VALLEYS...

CITY           SKY/WX    TMP DP  RH WIND       PRES   REMARKS
GRAND JUNCTION PTSUNNY   54  35  48 S20G30    29.61F
MONTROSE       NOT AVBL
EAGLE          PTSUNNY   46  36  66 NE6       29.69F
RIFLE          CLOUDY    41  37  86 W10       29.63F
DELTA          CLOUDY    62  31  32 S20G29    29.64F
NUCLA          CLOUDY    50  34  53 S18G30    29.69F
$$

COZ017>023-064>068-022300-
...SOUTHWEST COLORADO...

CITY           SKY/WX    TMP DP  RH WIND       PRES   REMARKS
DURANGO        NOT AVBL
CORTEZ         CLOUDY    50  33  52 S14       29.71F
PAGOSA SPRINGS LGT RAIN  39  35  86 CALM      29.85F
TELLURIDE      CLOUDY    40  25  54 SE17G37   29.78F
WOLF CREEK PAS CLOUDY    23  23 100 SW23G36   29.87F WCI   7
$$

COZ009-010-012-014-032>034-037-058>063-022300-
...CENTRAL COLORADO...

CITY           SKY/WX    TMP DP  RH WIND       PRES   REMARKS
ASPEN          CLOUDY    42  27  55 S16G30    29.70F
BUENA VISTA    CLOUDY    43  26  50 S13G23    29.74F
COPPER MTN     FLURRIES  32  21  64 S16G28    29.82F WCI  21
BERTHOUD PASS  PTSUNNY   27  19  74 SW20G35   29.83F WCI  13
COTTONWOOD PAS CLOUDY    41  18  38 SW15G31   29.78F
GUNNISON       NOT AVBL
KREMMLING      CLOUDY    43  30  61 SW15      29.70F
LEADVILLE      CLOUDY    32  21  64 S17G25    29.76F WCI  21
SALIDA         CLOUDY    47  28  47 S10G23    29.82F
SUNLIGHT       LGT SNOW  32  28  86 SW6         N/A  WCI  26
WILKERSON PASS PTSUNNY   32  21  64 S9G24     29.84F WCI  24
$$

COZ069>075-022300-
...SAN LUIS VALLEY/SANGRE DE CRISTO MOUNTAINS...

CITY           SKY/WX    TMP DP  RH WIND       PRES   REMARKS
ALAMOSA        PTSUNNY   41  29  62 S18G26    29.82F
LA VETA PASS   CLOUDY    34  27  75 S21G33    29.85F WCI  22
SAGUACHE       PTSUNNY   45  30  57 SW13G24   29.82F
$$

COZ035-036-038>040-022300-
...NORTHERN COLORADO FRONT RANGE...

CITY           SKY/WX    TMP DP  RH WIND       PRES   REMARKS
DENVER INTL AP PTSUNNY   33  22  63 CALM      29.69F HAZE
DMNS CITY PARK   N/A     36  21  55 N5        29.69F
AURORA         PTSUNNY   34  22  62 NE2       29.69F
FRONT RANGE AP NOT AVBL
ERIE MUNI ARPT MOSUNNY   32  22  67 CALM      29.71F
BOULDER MUN AP MOSUNNY   32  21  64 NW5       29.70F WCI  27
CENTENNIAL     PTSUNNY   37  24  59 E3        29.67F FOG
BROOMFIELD     PTSUNNY   30  25  80 CALM      29.70F HAZE
FORT COLLINS   MOSUNNY   36  25  64 CALM      29.72F
LONGMONT       MOSUNNY   39  23  53 CALM      29.73F
$$

COZ041-046-047-076>085-087-088-022300-
...PIKES PEAK/PALMER DIVIDE AND SOUTHERN FOOTHILLS...

CITY           SKY/WX    TMP DP  RH WIND       PRES   REMARKS
COLO. SPRINGS  PTSUNNY   33  26  75 E7        29.77F HAZE    WCI  27
A. F. ACADEMY  PTSUNNY   35  24  65 S12       29.74F WCI  26
ELLICOTT       NOT AVBL
FALCON         MOSUNNY   35  25  66 SW3       29.77F
FORT CARSON    MOSUNNY   33  27  80 SE6       29.75F WCI  27
LIMON          CLOUDY    28  26  92 SE15      29.76F WCI  16
MONUMENT HILL  PTSUNNY   43  27  52 S14       29.71F
TRINIDAD       CLOUDY    53  35  50 W14       29.78F
$$

COZ042>045-048>051-090-091-022300-
...NORTHEAST COLORADO...

CITY           SKY/WX    TMP DP  RH WIND       PRES   REMARKS
GREELEY ARPT   MOSUNNY   39  23  52 SE5       29.70F
AKRON          PTSUNNY   35  27  72 S21G26    29.73F WCI  24
BURLINGTON     CLOUDY    32  27  81 S26G32    29.82F WCI  18
WRAY           CLOUDY    33  26  78 S15       29.84F WCI  22
STERLING       PTSUNNY   41  28  60 S15G21    29.74F
HOLYOKE        NOT AVBL
FORT MORGAN    PTSUNNY   44  26  49 S12       29.72F
$$

COZ086-089-092>099-022300-
...SOUTHEAST COLORADO...

CITY           SKY/WX    TMP DP  RH WIND       PRES   REMARKS
PUEBLO           N/A     35  29  78 MISG      29.79F
LA JUNTA       PTSUNNY   42  30  62 CALM      29.80F
LAMAR          PTSUNNY   43  33  68 SE10      29.80F
SPRINGFIELD      N/A     36  30  79 S24G32    29.83F
$$


USA.gov is the U.S. government's official web portal to all federal, state and local government web resources and services.